contact:dominique.lefevre@mio.osupytheas.fr, maurice.libes@osupytheas.fr, didier.mallarino@osupytheas.fr
Project:EMSO http://www.emso-fr.org/EMSO-France
Depth: 2436.0 m
Title:EMSO Ligure Ouest : Data MII capteur MICROCAT
DateTime_Computer,Latitude,Longitude,Temperature,Conductivity,Pressure,DateTime_Instrument
DateTime_Computer,Latitude,Longitude,degC,S m-1,dbar,DateTime_Instrument
2020-06-06T00:00:09Z,42.805,6.029,13.2976,4.59975,2470.063,2020-6-06T02:00:52Z
2020-06-06T00:03:12Z,42.805,6.029,13.2975,4.59975,2470.017,2020-6-06T02:03:55Z
2020-06-06T00:06:15Z,42.805,6.029,13.2974,4.59975,2470.04,2020-6-06T02:06:59Z
2020-06-06T00:09:18Z,42.805,6.029,13.2980,4.59974,2470.077,2020-6-06T02:10:02Z
2020-06-06T00:12:21Z,42.805,6.029,13.2972,4.59975,2470.04,2020-6-06T02:13:05Z
2020-06-06T00:15:25Z,42.805,6.029,13.2977,4.59974,2470.017,2020-6-06T02:16:08Z
2020-06-06T00:18:28Z,42.805,6.029,13.2974,4.59975,2470.04,2020-6-06T02:19:12Z
2020-06-06T00:21:31Z,42.805,6.029,13.2975,4.59974,2470.04,2020-6-06T02:22:15Z
2020-06-06T00:24:35Z,42.805,6.029,13.2977,4.59976,2470.007,2020-6-06T02:25:18Z
2020-06-06T00:27:38Z,42.805,6.029,13.2973,4.59975,2470.007,2020-6-06T02:28:21Z
2020-06-06T00:30:41Z,42.805,6.029,13.2977,4.59974,2470.017,2020-6-06T02:31:25Z
2020-06-06T00:33:44Z,42.805,6.029,13.2974,4.59974,2469.993,2020-6-06T02:34:28Z
2020-06-06T00:36:47Z,42.805,6.029,13.2974,4.59974,2469.993,2020-6-06T02:37:31Z
2020-06-06T00:39:51Z,42.805,6.029,13.2972,4.59975,2469.993,2020-6-06T02:40:34Z
2020-06-06T00:42:54Z,42.805,6.029,13.2974,4.59974,2470.007,2020-6-06T02:43:38Z
2020-06-06T00:45:57Z,42.805,6.029,13.2973,4.59976,2470.021,2020-6-06T02:46:41Z
2020-06-06T00:49:00Z,42.805,6.029,13.2975,4.59973,2469.993,2020-6-06T02:49:44Z
2020-06-06T00:52:04Z,42.805,6.029,13.2974,4.59975,2469.984,2020-6-06T02:52:47Z
2020-06-06T00:55:07Z,42.805,6.029,13.2975,4.59975,2470.03,2020-6-06T02:55:51Z
2020-06-06T00:58:10Z,42.805,6.029,13.2973,4.59974,2470.017,2020-6-06T02:58:54Z
2020-06-06T01:01:13Z,42.805,6.029,13.2978,4.59974,2470.017,2020-6-06T03:01:57Z
2020-06-06T01:04:16Z,42.805,6.029,13.2977,4.59975,2469.97,2020-6-06T03:05:00Z
2020-06-06T01:07:20Z,42.805,6.029,13.2971,4.59974,2469.993,2020-6-06T03:08:03Z
2020-06-06T01:10:23Z,42.805,6.029,13.2972,4.59975,2470.017,2020-6-06T03:11:07Z
2020-06-06T01:13:26Z,42.805,6.029,13.2975,4.59975,2470.017,2020-6-06T03:14:10Z
2020-06-06T01:16:29Z,42.805,6.029,13.2972,4.59974,2470.007,2020-6-06T03:17:13Z
2020-06-06T01:19:33Z,42.805,6.029,13.2974,4.59977,2469.984,2020-6-06T03:20:16Z
2020-06-06T01:22:36Z,42.805,6.029,13.2973,4.59976,2469.984,2020-6-06T03:23:20Z
2020-06-06T01:25:39Z,42.805,6.029,13.2974,4.59974,2469.993,2020-6-06T03:26:23Z
2020-06-06T01:28:42Z,42.805,6.029,13.2975,4.59974,2469.97,2020-6-06T03:29:26Z
2020-06-06T01:31:46Z,42.805,6.029,13.2977,4.59975,2469.993,2020-6-06T03:32:29Z
2020-06-06T01:34:49Z,42.805,6.029,13.2972,4.59974,2470.007,2020-6-06T03:35:32Z
2020-06-06T01:37:52Z,42.805,6.029,13.2973,4.59976,2469.956,2020-6-06T03:38:36Z
2020-06-06T01:40:55Z,42.805,6.029,13.2973,4.59975,2469.979,2020-6-06T03:41:39Z
2020-06-06T01:43:58Z,42.805,6.029,13.2976,4.59973,2469.993,2020-6-06T03:44:42Z
2020-06-06T01:47:02Z,42.805,6.029,13.2971,4.59975,2469.947,2020-6-06T03:47:45Z
2020-06-06T01:50:05Z,42.805,6.029,13.2976,4.59976,2469.956,2020-6-06T03:50:48Z
2020-06-06T01:53:08Z,42.805,6.029,13.2974,4.59974,2469.97,2020-6-06T03:53:52Z
2020-06-06T01:56:11Z,42.805,6.029,13.2976,4.59976,2470.007,2020-6-06T03:56:55Z
2020-06-06T01:59:15Z,42.805,6.029,13.2972,4.59974,2469.97,2020-6-06T03:59:58Z
2020-06-06T02:02:18Z,42.805,6.029,13.2974,4.59974,2469.97,2020-6-06T04:03:01Z
2020-06-06T02:05:21Z,42.805,6.029,13.2978,4.59975,2469.947,2020-6-06T04:06:05Z
2020-06-06T02:08:24Z,42.805,6.029,13.2971,4.59975,2469.97,2020-6-06T04:09:08Z
2020-06-06T02:11:27Z,42.805,6.029,13.2975,4.59974,2469.993,2020-6-06T04:12:11Z
2020-06-06T02:14:31Z,42.805,6.029,13.2974,4.59974,2469.97,2020-6-06T04:15:14Z
2020-06-06T02:17:34Z,42.805,6.029,13.2973,4.59974,2469.993,2020-6-06T04:18:17Z
2020-06-06T02:20:37Z,42.805,6.029,13.2972,4.59978,2469.993,2020-6-06T04:21:21Z
2020-06-06T02:23:40Z,42.805,6.029,13.2972,4.59973,2469.96,2020-6-06T04:24:24Z
2020-06-06T02:26:44Z,42.805,6.029,13.2974,4.59975,2469.97,2020-6-06T04:27:27Z
2020-06-06T02:29:47Z,42.805,6.029,13.2974,4.59976,2469.97,2020-6-06T04:30:31Z
2020-06-06T02:32:50Z,42.805,6.029,13.2975,4.59975,2469.97,2020-6-06T04:33:34Z
2020-06-06T02:35:53Z,42.805,6.029,13.2971,4.59976,2469.97,2020-6-06T04:36:37Z
2020-06-06T02:38:56Z,42.805,6.029,13.2973,4.59974,2469.984,2020-6-06T04:39:40Z
2020-06-06T02:42:00Z,42.805,6.029,13.2971,4.59976,2469.956,2020-6-06T04:42:43Z
2020-06-06T02:45:03Z,42.805,6.029,13.2970,4.59976,2469.984,2020-6-06T04:45:47Z
2020-06-06T02:48:06Z,42.805,6.029,13.2976,4.59974,2469.97,2020-6-06T04:48:50Z
2020-06-06T02:51:09Z,42.805,6.029,13.2974,4.59975,2469.97,2020-6-06T04:51:53Z
2020-06-06T02:54:12Z,42.805,6.029,13.2976,4.59974,2470.04,2020-6-06T04:54:56Z
2020-06-06T02:57:16Z,42.805,6.029,13.2973,4.59975,2469.984,2020-6-06T04:57:59Z
2020-06-06T03:00:19Z,42.805,6.029,13.2977,4.59974,2470.03,2020-6-06T05:01:03Z
2020-06-06T03:03:22Z,42.805,6.029,13.2974,4.59974,2469.993,2020-6-06T05:04:06Z
2020-06-06T03:06:25Z,42.805,6.029,13.2972,4.59976,2469.984,2020-6-06T05:07:09Z
2020-06-06T03:09:28Z,42.805,6.029,13.2972,4.59976,2469.993,2020-6-06T05:10:12Z
2020-06-06T03:12:32Z,42.805,6.029,13.2974,4.59975,2470.017,2020-6-06T05:13:16Z
2020-06-06T03:15:35Z,42.805,6.029,13.2975,4.59977,2470.017,2020-6-06T05:16:19Z
2020-06-06T03:18:38Z,42.805,6.029,13.2974,4.59974,2469.993,2020-6-06T05:19:22Z
2020-06-06T03:21:42Z,42.805,6.029,13.2975,4.59975,2470.017,2020-6-06T05:22:25Z
2020-06-06T03:24:45Z,42.805,6.029,13.2975,4.59976,2470.017,2020-6-06T05:25:28Z
2020-06-06T03:27:48Z,42.805,6.029,13.2977,4.59975,2470.017,2020-6-06T05:28:32Z
2020-06-06T03:30:51Z,42.805,6.029,13.2976,4.59975,2469.97,2020-6-06T05:31:35Z
2020-06-06T03:33:54Z,42.805,6.029,13.2972,4.59976,2470.04,2020-6-06T05:34:38Z
2020-06-06T03:36:58Z,42.805,6.029,13.2974,4.59976,2470.03,2020-6-06T05:37:41Z
2020-06-06T03:40:01Z,42.805,6.029,13.2975,4.59976,2469.993,2020-6-06T05:40:45Z
2020-06-06T03:43:04Z,42.805,6.029,13.2974,4.59975,2470.017,2020-6-06T05:43:48Z
2020-06-06T03:46:08Z,42.805,6.029,13.2975,4.59976,2470.003,2020-6-06T05:46:51Z
2020-06-06T03:49:11Z,42.805,6.029,13.2976,4.59976,2470.017,2020-6-06T05:49:54Z
2020-06-06T03:52:14Z,42.805,6.029,13.2976,4.59975,2470.017,2020-6-06T05:52:58Z
2020-06-06T03:55:17Z,42.805,6.029,13.2975,4.59976,2469.993,2020-6-06T05:56:01Z
2020-06-06T03:58:20Z,42.805,6.029,13.2974,4.59975,2470.03,2020-6-06T05:59:04Z
2020-06-06T04:01:24Z,42.805,6.029,13.2973,4.59974,2470.077,2020-6-06T06:02:07Z
2020-06-06T04:04:27Z,42.805,6.029,13.2973,4.59974,2470.04,2020-6-06T06:05:10Z
2020-06-06T04:07:30Z,42.805,6.029,13.2975,4.59978,2470.017,2020-6-06T06:08:14Z
2020-06-06T04:10:33Z,42.805,6.029,13.2971,4.59975,2470.087,2020-6-06T06:11:17Z
2020-06-06T04:13:36Z,42.805,6.029,13.2971,4.59975,2470.04,2020-6-06T06:14:20Z
2020-06-06T04:16:40Z,42.805,6.029,13.2974,4.59975,2470.053,2020-6-06T06:17:23Z
2020-06-06T04:19:43Z,42.805,6.029,13.2974,4.59976,2470.077,2020-6-06T06:20:26Z
2020-06-06T04:22:46Z,42.805,6.029,13.2979,4.59976,2470.04,2020-6-06T06:23:30Z
2020-06-06T04:25:49Z,42.805,6.029,13.2978,4.59975,2470.063,2020-6-06T06:26:33Z
2020-06-06T04:28:52Z,42.805,6.029,13.2974,4.59975,2470.063,2020-6-06T06:29:36Z
2020-06-06T04:31:56Z,42.805,6.029,13.2976,4.59975,2470.063,2020-6-06T06:32:39Z
2020-06-06T04:34:59Z,42.805,6.029,13.2973,4.59976,2470.087,2020-6-06T06:35:43Z
2020-06-06T04:38:02Z,42.805,6.029,13.2974,4.59976,2470.087,2020-6-06T06:38:46Z
2020-06-06T04:41:05Z,42.805,6.029,13.2974,4.59976,2470.087,2020-6-06T06:41:49Z
2020-06-06T04:44:09Z,42.805,6.029,13.2975,4.59975,2470.077,2020-6-06T06:44:52Z
2020-06-06T04:47:12Z,42.805,6.029,13.2976,4.59976,2470.1,2020-6-06T06:47:56Z
2020-06-06T04:50:15Z,42.805,6.029,13.2972,4.59978,2470.077,2020-6-06T06:50:59Z
2020-06-06T04:53:18Z,42.805,6.029,13.2972,4.59976,2470.1,2020-6-06T06:54:02Z
2020-06-06T04:56:22Z,42.805,6.029,13.2974,4.59976,2470.11,2020-6-06T06:57:05Z
2020-06-06T04:59:25Z,42.805,6.029,13.2972,4.59976,2470.1,2020-6-06T07:00:08Z
2020-06-06T05:02:28Z,42.805,6.029,13.2975,4.59978,2470.063,2020-6-06T07:03:12Z
2020-06-06T05:05:31Z,42.805,6.029,13.2976,4.59976,2470.087,2020-6-06T07:06:15Z
2020-06-06T05:08:35Z,42.805,6.029,13.2973,4.59976,2470.087,2020-6-06T07:09:18Z
2020-06-06T05:11:38Z,42.805,6.029,13.2971,4.59976,2470.124,2020-6-06T07:12:21Z
2020-06-06T05:14:41Z,42.805,6.029,13.2973,4.59976,2470.087,2020-6-06T07:15:25Z
2020-06-06T05:17:44Z,42.805,6.029,13.2976,4.59976,2470.124,2020-6-06T07:18:28Z
2020-06-06T05:20:48Z,42.805,6.029,13.2974,4.59976,2470.124,2020-6-06T07:21:31Z
2020-06-06T05:23:51Z,42.805,6.029,13.2975,4.59976,2470.1,2020-6-06T07:24:34Z
2020-06-06T05:26:54Z,42.805,6.029,13.2976,4.59976,2470.11,2020-6-06T07:27:38Z
2020-06-06T05:29:57Z,42.805,6.029,13.2970,4.59976,2470.124,2020-6-06T07:30:41Z
2020-06-06T05:33:00Z,42.805,6.029,13.2977,4.59978,2470.11,2020-6-06T07:33:44Z
2020-06-06T05:36:04Z,42.805,6.029,13.2974,4.59976,2470.156,2020-6-06T07:36:47Z
2020-06-06T05:39:07Z,42.805,6.029,13.2974,4.59978,2470.156,2020-6-06T07:39:51Z
2020-06-06T05:42:10Z,42.805,6.029,13.2978,4.59976,2470.133,2020-6-06T07:42:54Z
2020-06-06T05:45:13Z,42.805,6.029,13.2974,4.59978,2470.171,2020-6-06T07:45:57Z
2020-06-06T05:48:17Z,42.805,6.029,13.2977,4.59981,2470.133,2020-6-06T07:49:00Z
2020-06-06T05:51:20Z,42.805,6.029,13.2974,4.59976,2470.133,2020-6-06T07:52:04Z
2020-06-06T05:54:23Z,42.805,6.029,13.2970,4.59976,2470.133,2020-6-06T07:55:07Z
2020-06-06T05:57:26Z,42.805,6.029,13.2974,4.59976,2470.147,2020-6-06T07:58:10Z
2020-06-06T06:00:29Z,42.805,6.029,13.2973,4.59980,2470.133,2020-6-06T08:01:13Z
2020-06-06T06:03:33Z,42.805,6.029,13.2976,4.59976,2470.119,2020-6-06T08:04:16Z
2020-06-06T06:06:36Z,42.805,6.029,13.2975,4.59978,2470.143,2020-6-06T08:07:19Z
2020-06-06T06:09:39Z,42.805,6.029,13.2976,4.59976,2470.156,2020-6-06T08:10:23Z
2020-06-06T06:12:42Z,42.805,6.029,13.2976,4.59976,2470.147,2020-6-06T08:13:26Z
2020-06-06T06:15:45Z,42.805,6.029,13.2973,4.59978,2470.194,2020-6-06T08:16:29Z
2020-06-06T06:18:49Z,42.805,6.029,13.2974,4.59976,2470.171,2020-6-06T08:19:32Z
2020-06-06T06:21:52Z,42.805,6.029,13.2977,4.59976,2470.147,2020-6-06T08:22:35Z
2020-06-06T06:24:55Z,42.805,6.029,13.2976,4.59976,2470.133,2020-6-06T08:25:39Z
2020-06-06T06:27:58Z,42.805,6.029,13.2974,4.59976,2470.156,2020-6-06T08:28:42Z
2020-06-06T06:31:01Z,42.805,6.029,13.2975,4.59976,2470.133,2020-6-06T08:31:45Z
2020-06-06T06:34:05Z,42.805,6.029,13.2978,4.59976,2470.156,2020-6-06T08:34:48Z
2020-06-06T06:37:08Z,42.805,6.029,13.2976,4.59977,2470.18,2020-6-06T08:37:52Z
2020-06-06T06:40:11Z,42.805,6.029,13.2976,4.59976,2470.171,2020-6-06T08:40:55Z
2020-06-06T06:43:14Z,42.805,6.029,13.2973,4.59975,2470.124,2020-6-06T08:43:58Z
2020-06-06T06:46:17Z,42.805,6.029,13.2976,4.59976,2470.133,2020-6-06T08:47:01Z
2020-06-06T06:49:21Z,42.805,6.029,13.2973,4.59975,2470.203,2020-6-06T08:50:04Z
2020-06-06T06:52:24Z,42.805,6.029,13.2975,4.59978,2470.156,2020-6-06T08:53:07Z
2020-06-06T06:55:27Z,42.805,6.029,13.2973,4.59976,2470.156,2020-6-06T08:56:11Z
2020-06-06T06:58:31Z,42.805,6.029,13.2977,4.59976,2470.156,2020-6-06T08:59:14Z
2020-06-06T07:01:34Z,42.805,6.029,13.2974,4.59976,2470.133,2020-6-06T09:02:17Z
2020-06-06T07:04:37Z,42.805,6.029,13.2974,4.59977,2470.156,2020-6-06T09:05:21Z
2020-06-06T07:07:40Z,42.805,6.029,13.2972,4.59976,2470.171,2020-6-06T09:08:24Z
2020-06-06T07:10:43Z,42.805,6.029,13.2972,4.59974,2470.156,2020-6-06T09:11:27Z
2020-06-06T07:13:47Z,42.805,6.029,13.2977,4.59976,2470.156,2020-6-06T09:14:30Z
2020-06-06T07:16:50Z,42.805,6.029,13.2977,4.59976,2470.194,2020-6-06T09:17:34Z
2020-06-06T07:19:53Z,42.805,6.029,13.2973,4.59976,2470.156,2020-6-06T09:20:37Z
2020-06-06T07:22:57Z,42.805,6.029,13.2974,4.59976,2470.156,2020-6-06T09:23:40Z
2020-06-06T07:26:00Z,42.805,6.029,13.2971,4.59976,2470.156,2020-6-06T09:26:43Z
2020-06-06T07:29:03Z,42.805,6.029,13.2974,4.59977,2470.133,2020-6-06T09:29:47Z
2020-06-06T07:32:06Z,42.805,6.029,13.2974,4.59976,2470.156,2020-6-06T09:32:50Z
2020-06-06T07:35:09Z,42.805,6.029,13.2973,4.59976,2470.156,2020-6-06T09:35:53Z
2020-06-06T07:38:13Z,42.805,6.029,13.2972,4.59976,2470.156,2020-6-06T09:38:56Z
2020-06-06T07:41:16Z,42.805,6.029,13.2973,4.59976,2470.18,2020-6-06T09:42:00Z
2020-06-06T07:44:19Z,42.805,6.029,13.2971,4.59976,2470.147,2020-6-06T09:45:03Z
2020-06-06T07:47:22Z,42.805,6.029,13.2974,4.59977,2470.156,2020-6-06T09:48:06Z
2020-06-06T07:50:26Z,42.805,6.029,13.2976,4.59975,2470.147,2020-6-06T09:51:09Z
2020-06-06T07:53:29Z,42.805,6.029,13.2973,4.59975,2470.147,2020-6-06T09:54:12Z
2020-06-06T07:56:32Z,42.805,6.029,13.2974,4.59975,2470.156,2020-6-06T09:57:16Z
2020-06-06T07:59:35Z,42.805,6.029,13.2976,4.59976,2470.171,2020-6-06T10:00:19Z
2020-06-06T08:02:39Z,42.805,6.029,13.2974,4.59976,2470.171,2020-6-06T10:03:22Z
2020-06-06T08:05:42Z,42.805,6.029,13.2976,4.59976,2470.11,2020-6-06T10:06:26Z
2020-06-06T08:08:45Z,42.805,6.029,13.2976,4.59976,2470.156,2020-6-06T10:09:29Z
2020-06-06T08:11:48Z,42.805,6.029,13.2974,4.59975,2470.156,2020-6-06T10:12:32Z
2020-06-06T08:14:52Z,42.805,6.029,13.2974,4.59976,2470.18,2020-6-06T10:15:35Z
2020-06-06T08:17:55Z,42.805,6.029,13.2970,4.59978,2470.133,2020-6-06T10:18:38Z
2020-06-06T08:20:58Z,42.805,6.029,13.2971,4.59976,2470.133,2020-6-06T10:21:42Z
2020-06-06T08:24:01Z,42.805,6.029,13.2976,4.59976,2470.171,2020-6-06T10:24:45Z
2020-06-06T08:27:04Z,42.805,6.029,13.2976,4.59976,2470.133,2020-6-06T10:27:48Z
2020-06-06T08:30:08Z,42.805,6.029,13.2974,4.59976,2470.156,2020-6-06T10:30:51Z
2020-06-06T08:33:11Z,42.805,6.029,13.2972,4.59975,2470.156,2020-6-06T10:33:55Z
2020-06-06T08:36:14Z,42.805,6.029,13.2976,4.59976,2470.11,2020-6-06T10:36:58Z
2020-06-06T08:39:17Z,42.805,6.029,13.2971,4.59978,2470.11,2020-6-06T10:40:01Z
2020-06-06T08:42:21Z,42.805,6.029,13.2972,4.59975,2470.147,2020-6-06T10:43:04Z
2020-06-06T08:45:24Z,42.805,6.029,13.2978,4.59976,2470.11,2020-6-06T10:46:08Z
2020-06-06T08:48:27Z,42.805,6.029,13.2973,4.59976,2470.133,2020-6-06T10:49:11Z
2020-06-06T08:51:30Z,42.805,6.029,13.2971,4.59976,2470.11,2020-6-06T10:52:14Z
2020-06-06T08:54:34Z,42.805,6.029,13.2976,4.59980,2470.133,2020-6-06T10:55:17Z
2020-06-06T08:57:37Z,42.805,6.029,13.2971,4.59974,2470.124,2020-6-06T10:58:21Z
2020-06-06T09:00:40Z,42.805,6.029,13.2971,4.59975,2470.11,2020-6-06T11:01:24Z
2020-06-06T09:03:43Z,42.805,6.029,13.2970,4.59976,2470.11,2020-6-06T11:04:27Z
2020-06-06T09:06:47Z,42.805,6.029,13.2974,4.59978,2470.11,2020-6-06T11:07:30Z
2020-06-06T09:09:50Z,42.805,6.029,13.2974,4.59977,2470.1,2020-6-06T11:10:33Z
2020-06-06T09:12:53Z,42.805,6.029,13.2977,4.59978,2470.087,2020-6-06T11:13:37Z
2020-06-06T09:15:56Z,42.805,6.029,13.2976,4.59977,2470.11,2020-6-06T11:16:40Z
2020-06-06T09:19:00Z,42.805,6.029,13.2974,4.59975,2470.124,2020-6-06T11:19:44Z
2020-06-06T09:22:03Z,42.805,6.029,13.2972,4.59980,2470.124,2020-6-06T11:22:47Z
2020-06-06T09:25:06Z,42.805,6.029,13.2972,4.59975,2470.133,2020-6-06T11:25:50Z
2020-06-06T09:28:10Z,42.805,6.029,13.2972,4.59978,2470.11,2020-6-06T11:28:53Z
2020-06-06T09:31:13Z,42.805,6.029,13.2972,4.59976,2470.124,2020-6-06T11:31:56Z
2020-06-06T09:34:16Z,42.805,6.029,13.2974,4.59977,2470.1,2020-6-06T11:35:00Z
2020-06-06T09:37:19Z,42.805,6.029,13.2976,4.59976,2470.133,2020-6-06T11:38:03Z
2020-06-06T09:40:22Z,42.805,6.029,13.2973,4.59977,2470.1,2020-6-06T11:41:06Z
2020-06-06T09:43:26Z,42.805,6.029,13.2974,4.59975,2470.063,2020-6-06T11:44:09Z
2020-06-06T09:46:29Z,42.805,6.029,13.2974,4.59976,2470.087,2020-6-06T11:47:13Z
2020-06-06T09:49:32Z,42.805,6.029,13.2973,4.59975,2470.063,2020-6-06T11:50:16Z
2020-06-06T09:52:36Z,42.805,6.029,13.2974,4.59976,2470.1,2020-6-06T11:53:19Z
2020-06-06T09:55:39Z,42.805,6.029,13.2977,4.59976,2470.087,2020-6-06T11:56:22Z
2020-06-06T09:58:42Z,42.805,6.029,13.2976,4.59976,2470.063,2020-6-06T11:59:26Z
2020-06-06T10:01:45Z,42.805,6.029,13.2974,4.59975,2470.053,2020-6-06T12:02:29Z
2020-06-06T10:04:49Z,42.805,6.029,13.2974,4.59976,2470.124,2020-6-06T12:05:32Z
2020-06-06T10:07:52Z,42.805,6.029,13.2976,4.59976,2470.1,2020-6-06T12:08:36Z
2020-06-06T10:10:55Z,42.805,6.029,13.2974,4.59976,2470.087,2020-6-06T12:11:39Z
2020-06-06T10:13:59Z,42.805,6.029,13.2974,4.59976,2470.11,2020-6-06T12:14:42Z
2020-06-06T10:17:02Z,42.805,6.029,13.2974,4.59978,2470.11,2020-6-06T12:17:45Z
2020-06-06T10:20:05Z,42.805,6.029,13.2973,4.59976,2470.063,2020-6-06T12:20:49Z
2020-06-06T10:23:08Z,42.805,6.029,13.2976,4.59976,2470.053,2020-6-06T12:23:52Z
2020-06-06T10:26:12Z,42.805,6.029,13.2975,4.59976,2470.063,2020-6-06T12:26:55Z
2020-06-06T10:29:15Z,42.805,6.029,13.2971,4.59976,2470.063,2020-6-06T12:29:59Z
2020-06-06T10:32:19Z,42.805,6.029,13.2975,4.59975,2470.04,2020-6-06T12:33:02Z
2020-06-06T10:35:22Z,42.805,6.029,13.2971,4.59974,2470.053,2020-6-06T12:36:06Z
2020-06-06T10:38:25Z,42.805,6.029,13.2975,4.59975,2470.063,2020-6-06T12:39:09Z
2020-06-06T10:41:29Z,42.805,6.029,13.2976,4.59976,2470.04,2020-6-06T12:42:12Z
2020-06-06T10:44:32Z,42.805,6.029,13.2976,4.59976,2470.017,2020-6-06T12:45:15Z
2020-06-06T10:47:35Z,42.805,6.029,13.2973,4.59976,2470.077,2020-6-06T12:48:19Z
2020-06-06T10:50:38Z,42.805,6.029,13.2974,4.59976,2470.077,2020-6-06T12:51:22Z
2020-06-06T10:53:42Z,42.805,6.029,13.2974,4.59975,2470.017,2020-6-06T12:54:25Z
2020-06-06T10:56:45Z,42.805,6.029,13.2974,4.59975,2470.053,2020-6-06T12:57:29Z
2020-06-06T10:59:48Z,42.805,6.029,13.2971,4.59976,2470.053,2020-6-06T13:00:32Z
2020-06-06T11:02:51Z,42.805,6.029,13.2971,4.59975,2470.053,2020-6-06T13:03:35Z
2020-06-06T11:05:55Z,42.805,6.029,13.2971,4.59974,2469.993,2020-6-06T13:06:38Z
2020-06-06T11:08:58Z,42.805,6.029,13.2973,4.59975,2470.087,2020-6-06T13:09:42Z
2020-06-06T11:12:01Z,42.805,6.029,13.2971,4.59975,2470.017,2020-6-06T13:12:45Z
2020-06-06T11:15:04Z,42.805,6.029,13.2974,4.59975,2470.053,2020-6-06T13:15:48Z
2020-06-06T11:18:08Z,42.805,6.029,13.2974,4.59975,2470.04,2020-6-06T13:18:51Z
2020-06-06T11:21:11Z,42.805,6.029,13.2976,4.59976,2470.063,2020-6-06T13:21:55Z
2020-06-06T11:24:14Z,42.805,6.029,13.2970,4.59976,2470.03,2020-6-06T13:24:58Z
2020-06-06T11:27:17Z,42.805,6.029,13.2974,4.59976,2470.04,2020-6-06T13:28:01Z
2020-06-06T11:30:21Z,42.805,6.029,13.2972,4.59975,2470.04,2020-6-06T13:31:04Z
2020-06-06T11:33:24Z,42.805,6.029,13.2975,4.59974,2470.017,2020-6-06T13:34:08Z
2020-06-06T11:36:27Z,42.805,6.029,13.2979,4.59976,2470.077,2020-6-06T13:37:11Z
2020-06-06T11:39:30Z,42.805,6.029,13.2974,4.59976,2469.993,2020-6-06T13:40:14Z
2020-06-06T11:42:34Z,42.805,6.029,13.2974,4.59976,2470.017,2020-6-06T13:43:17Z
2020-06-06T11:45:37Z,42.805,6.029,13.2972,4.59976,2470.017,2020-6-06T13:46:20Z
2020-06-06T11:48:40Z,42.805,6.029,13.2976,4.59974,2470.053,2020-6-06T13:49:24Z
2020-06-06T11:51:43Z,42.805,6.029,13.2974,4.59974,2470.053,2020-6-06T13:52:27Z
2020-06-06T11:54:47Z,42.805,6.029,13.2979,4.59976,2469.993,2020-6-06T13:55:30Z
2020-06-06T11:57:50Z,42.805,6.029,13.2975,4.59975,2469.993,2020-6-06T13:58:34Z
2020-06-06T12:00:53Z,42.805,6.029,13.2974,4.59976,2469.993,2020-6-06T14:01:37Z
2020-06-06T12:03:56Z,42.805,6.029,13.2974,4.59976,2469.993,2020-6-06T14:04:40Z
2020-06-06T12:06:59Z,42.805,6.029,13.2975,4.59976,2470.007,2020-6-06T14:07:43Z
2020-06-06T12:10:03Z,42.805,6.029,13.2973,4.59975,2470.017,2020-6-06T14:10:46Z
2020-06-06T12:13:06Z,42.805,6.029,13.2974,4.59975,2470.03,2020-6-06T14:13:50Z
2020-06-06T12:16:09Z,42.805,6.029,13.2973,4.59975,2469.97,2020-6-06T14:16:53Z
2020-06-06T12:19:12Z,42.805,6.029,13.2976,4.59975,2469.97,2020-6-06T14:19:56Z
2020-06-06T12:22:16Z,42.805,6.029,13.2971,4.59975,2469.97,2020-6-06T14:22:59Z
2020-06-06T12:25:19Z,42.805,6.029,13.2973,4.59975,2469.97,2020-6-06T14:26:03Z
2020-06-06T12:28:22Z,42.805,6.029,13.2974,4.59975,2469.993,2020-6-06T14:29:06Z
2020-06-06T12:31:25Z,42.805,6.029,13.2974,4.59974,2469.984,2020-6-06T14:32:09Z
2020-06-06T12:34:28Z,42.805,6.029,13.2976,4.59973,2469.947,2020-6-06T14:35:12Z
2020-06-06T12:37:32Z,42.805,6.029,13.2974,4.59974,2470.017,2020-6-06T14:38:15Z
2020-06-06T12:40:35Z,42.805,6.029,13.2974,4.59974,2470.007,2020-6-06T14:41:19Z
2020-06-06T12:43:38Z,42.805,6.029,13.2975,4.59975,2469.993,2020-6-06T14:44:22Z
2020-06-06T12:46:41Z,42.805,6.029,13.2972,4.59975,2469.993,2020-6-06T14:47:25Z
2020-06-06T12:49:45Z,42.805,6.029,13.2972,4.59975,2470.03,2020-6-06T14:50:28Z
2020-06-06T12:52:48Z,42.805,6.029,13.2973,4.59975,2469.947,2020-6-06T14:53:32Z
2020-06-06T12:55:51Z,42.805,6.029,13.2973,4.59974,2469.984,2020-6-06T14:56:35Z
2020-06-06T12:58:54Z,42.805,6.029,13.2975,4.59976,2469.993,2020-6-06T14:59:38Z
2020-06-06T13:01:58Z,42.805,6.029,13.2972,4.59975,2469.97,2020-6-06T15:02:41Z
2020-06-06T13:05:01Z,42.805,6.029,13.2973,4.59974,2469.97,2020-6-06T15:05:45Z
2020-06-06T13:08:04Z,42.805,6.029,13.2975,4.59975,2469.97,2020-6-06T15:08:48Z
2020-06-06T13:11:08Z,42.805,6.029,13.2974,4.59976,2469.97,2020-6-06T15:11:51Z
2020-06-06T13:14:11Z,42.805,6.029,13.2975,4.59975,2470.007,2020-6-06T15:14:55Z
2020-06-06T13:17:14Z,42.805,6.029,13.2974,4.59974,2470.007,2020-6-06T15:17:58Z
2020-06-06T13:20:17Z,42.805,6.029,13.2974,4.59974,2470.007,2020-6-06T15:21:01Z
2020-06-06T13:23:21Z,42.805,6.029,13.2972,4.59974,2469.937,2020-6-06T15:24:04Z
2020-06-06T13:26:24Z,42.805,6.029,13.2971,4.59974,2469.984,2020-6-06T15:27:08Z
2020-06-06T13:29:27Z,42.805,6.029,13.2975,4.59976,2470.007,2020-6-06T15:30:11Z
2020-06-06T13:32:30Z,42.805,6.029,13.2972,4.59974,2469.947,2020-6-06T15:33:14Z
2020-06-06T13:35:34Z,42.805,6.029,13.2974,4.59976,2469.947,2020-6-06T15:36:17Z
2020-06-06T13:38:37Z,42.805,6.029,13.2974,4.59975,2469.993,2020-6-06T15:39:20Z
2020-06-06T13:41:40Z,42.805,6.029,13.2974,4.59974,2469.97,2020-6-06T15:42:24Z
2020-06-06T13:44:43Z,42.805,6.029,13.2971,4.59974,2469.984,2020-6-06T15:45:27Z
2020-06-06T13:47:47Z,42.805,6.029,13.2977,4.59975,2469.97,2020-6-06T15:48:30Z
2020-06-06T13:50:50Z,42.805,6.029,13.2976,4.59974,2469.96,2020-6-06T15:51:34Z
2020-06-06T13:53:53Z,42.805,6.029,13.2976,4.59974,2469.97,2020-6-06T15:54:37Z
2020-06-06T13:56:56Z,42.805,6.029,13.2971,4.59976,2469.97,2020-6-06T15:57:40Z
2020-06-06T14:00:00Z,42.805,6.029,13.2974,4.59974,2469.923,2020-6-06T16:00:43Z
2020-06-06T14:03:03Z,42.805,6.029,13.2968,4.59973,2469.923,2020-6-06T16:03:46Z
2020-06-06T14:06:06Z,42.805,6.029,13.2973,4.59974,2469.947,2020-6-06T16:06:50Z
2020-06-06T14:09:09Z,42.805,6.029,13.2974,4.59974,2469.993,2020-6-06T16:09:53Z
2020-06-06T14:12:13Z,42.805,6.029,13.2973,4.59973,2469.947,2020-6-06T16:12:56Z
2020-06-06T14:15:16Z,42.805,6.029,13.2971,4.59978,2469.984,2020-6-06T16:15:59Z
2020-06-06T14:18:19Z,42.805,6.029,13.2973,4.59975,2469.923,2020-6-06T16:19:03Z
2020-06-06T14:21:22Z,42.805,6.029,13.2973,4.59974,2469.947,2020-6-06T16:22:06Z
2020-06-06T14:24:26Z,42.805,6.029,13.2976,4.59976,2469.947,2020-6-06T16:25:09Z
2020-06-06T14:27:29Z,42.805,6.029,13.2973,4.59974,2469.97,2020-6-06T16:28:13Z
2020-06-06T14:30:32Z,42.805,6.029,13.2974,4.59973,2469.97,2020-6-06T16:31:16Z
2020-06-06T14:33:35Z,42.805,6.029,13.2973,4.59974,2469.96,2020-6-06T16:34:19Z
2020-06-06T14:36:39Z,42.805,6.029,13.2971,4.59974,2469.97,2020-6-06T16:37:22Z
2020-06-06T14:39:42Z,42.805,6.029,13.2976,4.59975,2469.984,2020-6-06T16:40:26Z
2020-06-06T14:42:45Z,42.805,6.029,13.2974,4.59976,2469.984,2020-6-06T16:43:29Z
2020-06-06T14:45:48Z,42.805,6.029,13.2976,4.59975,2469.984,2020-6-06T16:46:32Z
2020-06-06T14:48:51Z,42.805,6.029,13.2977,4.59976,2469.97,2020-6-06T16:49:35Z
2020-06-06T14:51:55Z,42.805,6.029,13.2976,4.59975,2469.993,2020-6-06T16:52:38Z
2020-06-06T14:54:58Z,42.805,6.029,13.2974,4.59976,2469.97,2020-6-06T16:55:42Z
2020-06-06T14:58:01Z,42.805,6.029,13.2974,4.59973,2469.96,2020-6-06T16:58:45Z
2020-06-06T15:01:04Z,42.805,6.029,13.2971,4.59974,2469.97,2020-6-06T17:01:48Z
2020-06-06T15:04:08Z,42.805,6.029,13.2972,4.59976,2469.97,2020-6-06T17:04:51Z
2020-06-06T15:07:11Z,42.805,6.029,13.2974,4.59976,2469.97,2020-6-06T17:07:55Z
2020-06-06T15:10:14Z,42.805,6.029,13.2978,4.59975,2469.97,2020-6-06T17:10:58Z
2020-06-06T15:13:17Z,42.805,6.029,13.2974,4.59974,2470.007,2020-6-06T17:14:01Z